Weather History for KRBG - November, 2013

Change the Weather History Date:

Tuesday, November 5, 2013

  Actual Average Record
Temperature  
Mean Temperature 53 °F 50 °F  
Max Temperature 57 °F 57 °F 76 °F (2002)
Min Temperature 48 °F 42 °F 24 °F (1957)
Degree Days  
Heating Degree Days 12 15  
Month to date heating degree days 70 74  
Since 1 July heating degree days 469 460  
Cooling Degree Days 0 0  
Month to date cooling degree days 0 0  
Year to date cooling degree days 823 480  
Growing Degree Days 2 (Base 50)    
Moisture  
Dew Point 50 °F    
Average Humidity 92    
Maximum Humidity 100    
Minimum Humidity 83    
Precipitation  
Precipitation 0.36 in 0.18 in 2.33 in (1973)
Month to date precipitation 0.75 0.86  
Year to date precipitation 13.56 24.14  
Sea Level Pressure  
Sea Level Pressure 30.24 in    
Wind  
Wind Speed 0 mph (North)    
Max Wind Speed 6 mph    
Max Gust Speed 8 mph    
Visibility 5 miles    
Events Rain    
T = Trace of Precipitation, MM = Missing Value Source: NWS Daily Summary

Daily Weather History Graph

Daily Weather History Graph

Search for Another Location

Airport or City:

Trip Planner

Search our weather history database for the weather conditions in past years. The results will help you decide how hot, cold, wet, or windy it might be!

Date:

Astronomy

Nov. 05, 2013 Rise Set
Actual Time 6:53 AM PST 4:59 PM PST
Civil Twilight 6:24 AM PST 5:29 PM PST
Nautical Twilight 5:50 AM PST 6:03 PM PST
Astronomical Twilight 5:16 AM PST 6:36 PM PST
Moon 9:17 AM PST (11/5) 7:04 PM PST (11/5)
Length of Visible Light 11h 05m
Length of Day
10h 05m
Waxing Crescent, 7% of the Moon is Illuminated
Nov 5
Waxing Crescent
Nov 9
First Quarter
Nov 17
Full
Nov 25
Last Quarter
Dec 2
New

Hourly Weather History & Observations

Time (PST) Temp. Dew Point Humidity Pressure Visibility Wind Dir Wind Speed Gust Speed Precip Events Conditions
12:53 AM 48.9 °F 46.0 °F 90% 30.19 in 10.0 mi Calm Calm - 0.00 in Rain Light Rain
1:53 AM 48.9 °F 46.0 °F 90% 30.18 in 7.0 mi Calm Calm - 0.01 in Rain Light Rain
2:53 AM 48.0 °F 46.9 °F 96% 30.18 in 6.0 mi Calm Calm - 0.06 in Rain Rain
3:49 AM 48.2 °F 46.4 °F 93% 30.17 in 7.0 mi Calm Calm - 0.03 in Rain Light Rain
3:53 AM 48.9 °F 46.9 °F 93% 30.18 in 6.0 mi Calm Calm - 0.04 in Rain Rain
4:53 AM 48.0 °F 46.0 °F 93% 30.18 in 4.0 mi Calm Calm - 0.06 in Rain Light Rain
5:53 AM 48.0 °F 46.9 °F 96% 30.19 in 7.0 mi Calm Calm - 0.03 in Rain Light Rain
6:36 AM 48.2 °F 46.4 °F 93% 30.19 in 2.5 mi Calm Calm - 0.06 in Rain Light Rain
6:53 AM 48.0 °F 46.9 °F 96% 30.20 in 4.0 mi Calm Calm - 0.06 in Rain Light Rain
7:14 AM 48.2 °F 46.4 °F 93% 30.20 in 4.0 mi Calm Calm - 0.01 in Rain Light Rain
7:33 AM 48.2 °F 46.4 °F 93% 30.21 in 2.0 mi Calm Calm - 0.01 in Rain Light Rain
7:45 AM 48.2 °F 48.2 °F 100% 30.21 in 3.0 mi Calm Calm - 0.02 in Rain Light Rain
7:53 AM 48.9 °F 48.0 °F 97% 30.22 in 4.0 mi Calm Calm - 0.02 in Rain Light Rain
8:03 AM 48.2 °F 48.2 °F 100% 30.21 in 2.0 mi Calm Calm - 0.00 in Rain Light Rain
8:42 AM 48.2 °F 48.2 °F 100% 30.23 in 1.8 mi Calm Calm - 0.01 in Rain Light Rain
8:51 AM 50.0 °F 48.2 °F 94% 30.23 in 2.0 mi Calm Calm - 0.01 in Rain Light Rain
8:53 AM 50.0 °F 48.0 °F 93% 30.24 in 2.5 mi Calm Calm - 0.01 in Rain Light Rain
9:19 AM 50.0 °F 48.2 °F 94% 30.23 in 5.0 mi Calm Calm - 0.01 in Rain Light Rain
9:53 AM 50.0 °F 48.9 °F 96% 30.24 in 7.0 mi Calm Calm - 0.01 in   Overcast
10:53 AM 52.0 °F 50.0 °F 93% 30.24 in 10.0 mi Calm Calm - N/A   Overcast
11:01 AM 53.6 °F 50.0 °F 88% 30.23 in 10.0 mi Calm Calm - N/A   Overcast
11:53 AM 54.0 °F 48.9 °F 83% 30.23 in 10.0 mi Calm Calm - N/A   Overcast
12:53 PM 55.0 °F 51.1 °F 86% 30.21 in 10.0 mi Calm Calm - N/A   Overcast
1:53 PM 55.9 °F 50.0 °F 80% 30.22 in 10.0 mi Calm Calm - N/A   Overcast
2:53 PM 55.9 °F 52.0 °F 87% 30.21 in 10.0 mi Calm Calm - 0.00 in   Overcast
3:53 PM 55.0 °F 52.0 °F 89% 30.22 in 5.0 mi North 3.5 mph - N/A   Overcast
4:53 PM 54.0 °F 52.0 °F 93% 30.23 in 4.0 mi Calm Calm - N/A   Overcast
5:53 PM 54.0 °F 52.0 °F 93% 30.23 in 10.0 mi Calm Calm - N/A   Overcast
6:53 PM 54.0 °F 52.0 °F 93% 30.25 in 6.0 mi Calm Calm - 0.02 in Rain Light Rain
7:30 PM 53.6 °F 51.8 °F 94% 30.25 in 4.0 mi Calm Calm - 0.01 in Rain Light Rain
7:39 PM 53.6 °F 53.6 °F 100% 30.25 in 2.5 mi Calm Calm - 0.01 in Rain Light Rain
7:42 PM 53.6 °F 53.6 °F 100% 30.25 in 2.5 mi Calm Calm - 0.01 in Rain Light Rain
7:53 PM 54.0 °F 53.1 °F 97% 30.25 in 2.5 mi Calm Calm - 0.01 in   Overcast
7:56 PM 53.6 °F 53.6 °F 100% 30.25 in 3.0 mi Calm Calm - N/A   Overcast
8:08 PM 53.6 °F 53.6 °F 100% 30.25 in 3.0 mi Calm Calm - N/A   Overcast
8:28 PM 53.6 °F 51.8 °F 94% 30.26 in 2.5 mi Calm Calm - N/A   Overcast
8:41 PM 53.6 °F 53.6 °F 100% 30.26 in 1.8 mi Calm Calm - 0.02 in Rain Light Rain
8:46 PM 53.6 °F 53.6 °F 100% 30.26 in 2.0 mi Calm Calm - 0.02 in Rain Light Rain
8:53 PM 53.1 °F 53.1 °F 100% 30.27 in 2.5 mi Calm Calm - 0.02 in Rain Light Rain
9:09 PM 53.6 °F 51.8 °F 94% 30.27 in 3.0 mi Calm Calm - N/A   Overcast
9:36 PM 53.6 °F 51.8 °F 94% 30.27 in 2.5 mi Calm Calm - 0.00 in Rain Light Rain
9:38 PM 53.6 °F 51.8 °F 94% 30.27 in 3.0 mi Calm Calm - 0.01 in Rain Light Rain
9:44 PM 53.6 °F 51.8 °F 94% 30.28 in 3.0 mi Calm Calm - 0.01 in Rain Light Rain
9:53 PM 53.1 °F 53.1 °F 100% 30.28 in 3.0 mi Calm Calm - 0.01 in   Overcast
10:28 PM 53.6 °F 51.8 °F 94% 30.28 in 4.0 mi Calm Calm - N/A   Overcast
10:46 PM 53.6 °F 53.6 °F 100% 30.28 in 4.0 mi Calm Calm - N/A   Overcast
10:53 PM 54.0 °F 53.1 °F 97% 30.29 in 4.0 mi Calm Calm - N/A   Overcast
11:19 PM 53.6 °F 53.6 °F 100% 30.28 in 4.0 mi Calm Calm - N/A   Overcast
11:27 PM 53.6 °F 53.6 °F 100% 30.28 in 4.0 mi Calm Calm - N/A   Overcast
11:42 PM 53.6 °F 51.8 °F 94% 30.28 in 3.0 mi Calm Calm - N/A   Overcast
11:53 PM 54.0 °F 52.0 °F 93% 30.29 in 4.0 mi Calm Calm - N/A   Overcast